• In Moldova, Republic
  • List of Countries
  • For 7 days
  • Water Temperature
  • Satellite Maps
  • Weather Map
  • Weather Widgets
  • user-avatar
    Login

    Hourly Weather Stepanakert

    Today, 19 June, Tuesday

    Time Temperature Precipitation Wind Pressure Humidity
    00:00 +17°C° 0 mm 2 mps 688 mmHg 71%
    01:00 +18°C° 0 mm 1 mps 688 mmHg 71%
    02:00 +18°C° 0 mm 1 mps 689 mmHg 71%
    03:00 +18°C° 0 mm 1 mps 688 mmHg 71%
    04:00 +18°C° 0 mm 1 mps 689 mmHg 69%
    05:00 +19°C° 0 mm 1 mps 689 mmHg 66%
    06:00 +20°C° 0 mm 1 mps 689 mmHg 64%
    07:00 +21°C° 0 mm 1 mps 690 mmHg 58%
    08:00 +23°C° 0 mm 2 mps 690 mmHg 52%
    09:00 +25°C° 0 mm 2 mps 690 mmHg 46%
    10:00 +25°C° 0.1 mm 3 mps 691 mmHg 44%
    11:00 +26°C° 0.1 mm 3 mps 691 mmHg 42%
    12:00 +27°C° 0.1 mm 3 mps 691 mmHg 40%
    13:00 +28°C° 0.1 mm 3 mps 691 mmHg 39%
    14:00 +28°C° 0.1 mm 3 mps 691 mmHg 39%
    15:00 +28°C° 0 mm 3 mps 690 mmHg 39%
    16:00 +28°C° 0.1 mm 3 mps 691 mmHg 42%
    17:00 +27°C° 0.1 mm 3 mps 691 mmHg 44%
    18:00 +26°C° 0.1 mm 3 mps 691 mmHg 46%
    19:00 +24°C° 0 mm 3 mps 691 mmHg 51%
    20:00 +21°C° 0 mm 2 mps 691 mmHg 55%
    21:00 +19°C° 0 mm 2 mps 691 mmHg 59%
    22:00 +20°C° 0 mm 1 mps 691 mmHg 60%
    23:00 +20°C° 0 mm 1 mps 691 mmHg 61%

    Tomorrow, 20 June, Wednesday

    Time Temperature Precipitation Wind Pressure Humidity
    00:00 +19°C° 0 mm 1 mps 691 mmHg 62%
    01:00 +19°C° 0 mm 1 mps 691 mmHg 63%
    02:00 +19°C° 0 mm 1 mps 692 mmHg 64%
    03:00 +18°C° 0 mm 1 mps 692 mmHg 65%
    04:00 +19°C° 0 mm 1 mps 692 mmHg 63%
    05:00 +20°C° 0 mm 1 mps 692 mmHg 61%
    06:00 +21°C° 0 mm 1 mps 693 mmHg 59%
    07:00 +22°C° 0 mm 1 mps 693 mmHg 53%
    08:00 +23°C° 0 mm 2 mps 693 mmHg 48%
    09:00 +25°C° 0 mm 2 mps 693 mmHg 43%
    10:00 +26°C° 0.1 mm 2 mps 693 mmHg 41%
    11:00 +27°C° 0.1 mm 3 mps 693 mmHg 39%
    12:00 +28°C° 0.1 mm 3 mps 693 mmHg 37%
    13:00 +28°C° 0.1 mm 3 mps 693 mmHg 37%
    14:00 +29°C° 0.1 mm 3 mps 692 mmHg 37%
    15:00 +29°C° 0.1 mm 3 mps 692 mmHg 37%
    16:00 +28°C° 0.1 mm 3 mps 692 mmHg 40%
    17:00 +28°C° 0.1 mm 3 mps 692 mmHg 42%
    18:00 +27°C° 0.1 mm 3 mps 692 mmHg 45%
    19:00 +25°C° 0 mm 2 mps 693 mmHg 49%
    20:00 +23°C° 0 mm 2 mps 693 mmHg 54%
    21:00 +20°C° 0 mm 2 mps 693 mmHg 58%
    22:00 +20°C° 0 mm 2 mps 693 mmHg 59%
    23:00 +19°C° 0 mm 2 mps 693 mmHg 60%

    Day after tomorrow, 21 June, Thursday

    Time Temperature Precipitation Wind Pressure Humidity
    00:00 +19°C° 0 mm 2 mps 693 mmHg 61%
    01:00 +18°C° 0 mm 2 mps 693 mmHg 62%
    02:00 +19°C° 0 mm 1 mps 693 mmHg 62%
    03:00 +19°C° 0 mm 1 mps 693 mmHg 63%
    04:00 +20°C° 0 mm 1 mps 694 mmHg 61%
    05:00 +21°C° 0 mm 1 mps 694 mmHg 59%
    06:00 +21°C° 0 mm 1 mps 694 mmHg 57%
    07:00 +23°C° 0 mm 1 mps 694 mmHg 51%
    08:00 +24°C° 0 mm 2 mps 695 mmHg 46%
    09:00 +26°C° 0 mm 2 mps 695 mmHg 40%
    10:00 +27°C° 0 mm 2 mps 695 mmHg 39%
    11:00 +28°C° 0 mm 3 mps 694 mmHg 37%
    12:00 +29°C° 0 mm 3 mps 694 mmHg 36%
    13:00 +29°C° 0 mm 3 mps 694 mmHg 36%
    14:00 +30°C° 0 mm 3 mps 693 mmHg 36%
    15:00 +30°C° 0 mm 4 mps 693 mmHg 36%
    16:00 +29°C° 0.1 mm 3 mps 693 mmHg 38%
    17:00 +29°C° 0.1 mm 3 mps 693 mmHg 40%
    18:00 +28°C° 0.1 mm 3 mps 693 mmHg 42%
    19:00 +26°C° 0 mm 3 mps 693 mmHg 46%
    20:00 +24°C° 0 mm 2 mps 693 mmHg 50%
    21:00 +21°C° 0 mm 2 mps 693 mmHg 53%
    22:00 +21°C° 0 mm 2 mps 693 mmHg 54%
    23:00 +20°C° 0 mm 2 mps 693 mmHg 54%

    22 June, Friday

    Time Temperature Precipitation Wind Pressure Humidity
    00:00 +20°C° 0 mm 2 mps 693 mmHg 55%
    01:00 +19°C° 0 mm 2 mps 693 mmHg 55%
    02:00 +19°C° 0 mm 2 mps 693 mmHg 55%
    03:00 +19°C° 0 mm 2 mps 692 mmHg 55%
    04:00 +19°C° 0 mm 2 mps 692 mmHg 53%
    05:00 +20°C° 0 mm 2 mps 692 mmHg 51%
    06:00 +22°C° 0 mm 1 mps 692 mmHg 50%
    07:00 +24°C° 0 mm 2 mps 693 mmHg 44%
    08:00 +25°C° 0 mm 2 mps 693 mmHg 38%
    09:00 +27°C° 0 mm 2 mps 693 mmHg 32%
    10:00 +28°C° 0 mm 3 mps 692 mmHg 31%
    11:00 +29°C° 0 mm 3 mps 692 mmHg 29%
    12:00 +30°C° 0 mm 3 mps 692 mmHg 27%
    13:00 +30°C° 0 mm 3 mps 691 mmHg 27%
    14:00 +32°C° 0 mm 4 mps 691 mmHg 26%
    15:00 +32°C° 0 mm 4 mps 690 mmHg 26%
    16:00 +30°C° 0 mm 3 mps 690 mmHg 28%
    17:00 +29°C° 0 mm 3 mps 690 mmHg 30%
    18:00 +29°C° 0 mm 3 mps 690 mmHg 32%
    19:00 +26°C° 0 mm 3 mps 690 mmHg 36%
    20:00 +24°C° 0 mm 2 mps 690 mmHg 39%
    21:00 +21°C° 0 mm 2 mps 690 mmHg 42%
    22:00 +21°C° 0 mm 2 mps 690 mmHg 42%
    23:00 +20°C° 0 mm 2 mps 689 mmHg 42%

    23 June, Saturday

    Time Temperature Precipitation Wind Pressure Humidity
    00:00 +20°C° 0 mm 2 mps 689 mmHg 42%
    01:00 +19°C° 0 mm 2 mps 689 mmHg 42%
    02:00 +19°C° 0 mm 2 mps 689 mmHg 42%
    03:00 +19°C° 0 mm 2 mps 689 mmHg 41%
    04:00 +20°C° 0 mm 2 mps 689 mmHg 42%
    05:00 +20°C° 0 mm 2 mps 690 mmHg 42%
    06:00 +21°C° 0 mm 2 mps 690 mmHg 43%
    07:00 +24°C° 0 mm 2 mps 690 mmHg 40%
    08:00 +26°C° 0 mm 2 mps 690 mmHg 37%
    09:00 +27°C° 0 mm 2 mps 690 mmHg 33%
    10:00 +29°C° 0 mm 2 mps 690 mmHg 32%
    11:00 +30°C° 0 mm 2 mps 690 mmHg 31%
    12:00 +31°C° 0 mm 3 mps 690 mmHg 30%
    13:00 +31°C° 0.1 mm 3 mps 690 mmHg 30%
    14:00 +31°C° 0.1 mm 2 mps 689 mmHg 30%
    15:00 +32°C° 0.1 mm 2 mps 689 mmHg 30%
    16:00 +31°C° 0 mm 2 mps 689 mmHg 32%
    17:00 +31°C° 0 mm 2 mps 689 mmHg 34%
    18:00 +30°C° 0 mm 2 mps 689 mmHg 37%
    19:00 +28°C° 0 mm 2 mps 689 mmHg 40%
    20:00 +26°C° 0 mm 2 mps 690 mmHg 44%
    21:00 +24°C° 0 mm 2 mps 690 mmHg 47%
    22:00 +24°C° 0 mm 2 mps 690 mmHg 48%
    23:00 +23°C° 0 mm 2 mps 690 mmHg 49%

    24 June, Sunday

    Time Temperature Precipitation Wind Pressure Humidity
    00:00 +23°C° 0 mm 2 mps 690 mmHg 50%
    01:00 +23°C° 0 mm 2 mps 690 mmHg 50%
    02:00 +21°C° 0 mm 2 mps 690 mmHg 51%
    03:00 +21°C° 0 mm 2 mps 690 mmHg 51%
    04:00 +23°C° 0 mm 2 mps 690 mmHg 50%
    05:00 +24°C° 0 mm 2 mps 691 mmHg 49%
    06:00 +24°C° 0 mm 2 mps 691 mmHg 49%
    07:00 +26°C° 0 mm 2 mps 691 mmHg 44%
    08:00 +28°C° 0 mm 2 mps 692 mmHg 38%
    09:00 +30°C° 0 mm 3 mps 692 mmHg 33%
    10:00 +31°C° 0 mm 3 mps 692 mmHg 32%
    11:00 +33°C° 0 mm 3 mps 692 mmHg 31%
    12:00 +34°C° 0 mm 3 mps 692 mmHg 30%
    13:00 +34°C° 0 mm 3 mps 692 mmHg 29%
    14:00 +34°C° 0 mm 3 mps 691 mmHg 29%
    15:00 +34°C° 0 mm 3 mps 691 mmHg 29%
    16:00 +34°C° 0 mm 3 mps 691 mmHg 31%
    17:00 +33°C° 0 mm 3 mps 691 mmHg 33%
    18:00 +32°C° 0 mm 2 mps 691 mmHg 34%
    19:00 +30°C° 0 mm 2 mps 692 mmHg 38%
    20:00 +27°C° 0 mm 2 mps 692 mmHg 42%
    21:00 +25°C° 0 mm 2 mps 692 mmHg 46%
    22:00 +25°C° 0 mm 2 mps 692 mmHg 46%
    23:00 +24°C° 0 mm 2 mps 692 mmHg 47%
    Show more